Regional Weather Roundup
Issued by NWS

Home | Current Version | Previous Version | Graphics & Text | Print | Product List | Glossary On
Versions: 1 2 3 4 5 6 7 8 9 10 11 12 13 14 15 16 17 18 19 20 21 22 23 24 25 26 27 28 29 30 31 32 33 34 35 36 37 38 39 40 41 42 43 44 45 46 47 48 49 50
000
ASUS43 KDMX 150407
RWRIA

WEATHER ROUNDUP FOR IOWA
NATIONAL WEATHER SERVICE DES MOINES IA
1100 PM CDT SUN SEP 14 2014

NOTE: "FAIR" INDICATES FEW OR NO CLOUDS BELOW 12,000 FEET WITH NO
SIGNIFICANT WEATHER AND/OR OBSTRUCTIONS TO VISIBILITY.

* - THESE STATIONS ARE NOT NWS STATIONS...THUS NOT UNDER NWS
QUALITY CONTROL.  THEY ALSO DO NOT REPORT WEATHER SUCH
AS PRECIPITATION OR FOG.

IAZ001>003-012>014-020>022-031>034-043>046-150500-
   NORTHWEST IOWA

CITY           SKY/WX    TMP DP  RH WIND       PRES   REMARKS
CARROLL *      CLOUDY    57  55  94 CALM      30.12S
CHEROKEE *     CLOUDY    55  55 100 NE3       30.11S
DENISON *      CLOUDY    59  55  88 E3        30.10S
LE MARS *      CLOUDY    55  54  94 CALM      30.11S
ORANGE CITY *  CLOUDY    57  48  72 E8        30.12R
SHELDON *      CLOUDY    54  46  76 NE8       30.12S
SIOUX CITY     MOCLDY    57  52  83 E5        30.09S
SPENCER        CLOUDY    54  46  74 NE7       30.14S
STORM LAKE *   MOCLDY    55  55 100 CALM      30.12S
$$

IAZ055>058-069>071-079>083-090>094-150500-
   SOUTHWEST IOWA

CITY           SKY/WX    TMP DP  RH WIND       PRES   REMARKS
ATLANTIC *     CLOUDY    59  55  88 CALM      30.11S
AUDUBON *      CLOUDY    61  57  88 CALM      30.13S
CLARINDA *     CLOUDY    63  57  82 CALM      30.12R
COUNCIL BLFS * CLOUDY    63  55  77 E5        30.08F
CRESTON *      CLOUDY    59  55  88 SE3       30.13S
HARLAN  *      CLOUDY    61  54  77 CALM      30.14S
LAMONI         CLOUDY    60  52  74 E6        30.12F
SHENANDOAH *   CLOUDY    63  57  82 NE5       30.10S
$$

IAZ047>049-059>061-072>074-084-150500-
   CENTRAL IOWA

CITY           SKY/WX    TMP DP  RH WIND       PRES   REMARKS
AMES           CLOUDY    54  53  97 CALM      30.13S
ANKENY *       CLOUDY    59  55  88 SE3       30.13S
CHARITON *     CLOUDY    59  55  88 E5        30.14R
DES MOINES     CLOUDY    63  53  70 SE6       30.13S
GRINNELL*      PTCLDY    55  50  82 SE3       30.15S
KNOXVILLE *    CLOUDY    61  52  72 SE6       30.13S
MARSHALLTOWN   MOCLDY    53  50  89 SE5       30.14S
PELLA *        CLOUDY    59  54  82 SE3       30.15S
PERRY *        CLOUDY    59  54  82 CALM      30.13S
$$

IAZ004>006-015-016-023>025-035-036-150500-
   NORTH CENTRAL IOWA

CITY           SKY/WX    TMP DP  RH WIND       PRES   REMARKS
ALGONA *       CLOUDY    54  48  82 NE7       30.15R
CLARION *        N/A     55  52  88 CALM      30.13S
ESTHERVILLE    CLOUDY    52  46  80 NE5       30.15R
FORT DODGE *   CLOUDY    55  52  88 CALM      30.13S
MASON CITY     MOCLDY    54  52  93 CALM      30.16R
FOREST CITY *  MOCLDY    54  52  94 N3        30.14R
IOWA FALLS *   MOCLDY    54  50  87 S7        30.15S
$$

IAZ007>011-017>019-026>030-037>042-050>054-066-150500-
   NORTHEAST IOWA

CITY           SKY/WX    TMP DP  RH WIND       PRES   REMARKS
CEDAR RAPIDS   MOCLDY    53  49  86 S3        30.15S
CHARLES CITY * CLOUDY    55  52  88 S5        30.14R
CLINTON *      MOCLDY    48  45  87 CALM      30.19F
DECORAH *      PTCLDY    55  50  82 CALM      30.13S
DUBUQUE        PTCLDY    51  47  86 S5        30.17S
MONTICELLO *   CLOUDY    52  50  93 CALM      30.16S
OELWEIN *      MOCLDY    52  50  93 S7        30.15S
WATERLOO       PTCLDY    55  49  80 SE5       30.13S
$$

IAZ064-065-067-068-078-150500-
   EAST CENTRAL IOWA

CITY           SKY/WX    TMP DP  RH WIND       PRES   REMARKS
DAVENPORT      MOCLDY    52  46  80 CALM      30.17S
IOWA CITY      MOCLDY    55  51  86 CALM      30.17S
MT. PLEASANT * MOCLDY    54  48  82 SE6       30.16S
MUSCATINE *    CLEAR     55  52  88 CALM      30.17S
QUAD CITIES    MOCLDY    53  50  89 CALM      30.17S
$$

IAZ062-063-075>077-085>089-095>099-150500-
   SOUTHEAST IOWA

CITY           SKY/WX    TMP DP  RH WIND       PRES   REMARKS
BURLINGTON     MOCLDY    54  51  90 CALM      30.17R
FAIRFIELD *    CLOUDY    57  50  77 CALM      30.16R
FORT MADISON * PTCLDY    59  48  67 SE3       30.17S
KEOKUK *       PTCLDY    57  50  77 SE5       30.15S
OSKALOOSA *    CLOUDY    57  52  82 SE3       30.15S
CENTERVILLE *  CLOUDY    57  55  94 CALM      30.16R
OTTUMWA        CLOUDY    58  52  80 E3        30.14S
WASHINGTON *   CLEAR     55  52  88 SE3       30.16S
$$

ABBREVIATIONS USED IN REMARKS
   TC - TEMPERATURES IN CELSIUS
  WCI - WIND CHILL INDEX
   HX - HEAT INDEX
  VSB - VISIBILITY
$$




USA.gov is the U.S. government's official web portal to all federal, state and local government web resources and services.